Location: Unspecified
(47.1121°N, 116.3927°W)
Time: 20:07:46
(UTC-07:00)

CZ-3 Stage 3 - Visible Passes

Search period start: 23 September 2017 00:00
Search period end: 03 October 2017 00:00
Orbit: 426 x 34772 km, 31.0° (Epoch: 22 September)

Date Brightness Start Highest point End Pass type
(mag) Time Alt. Az. Time Alt. Az. Time Alt. Az.
23 Sep 8.9 15:37:47 10° W 16:21:59 20° WSW 18:21:21 10° SW visible
24 Sep 6.9 11:47:10 10° W 12:10:07 44° SSW 18:05:05 10° SSW visible
26 Sep 8.9 15:29:33 10° W 16:12:30 19° WSW 18:04:29 10° SW visible
27 Sep 6.9 11:38:02 10° W 12:00:49 43° SSW 17:49:04 10° SSW visible
29 Sep 8.9 15:21:26 10° W 16:03:03 18° WSW 17:47:24 10° SW visible
30 Sep 6.9 11:28:53 10° WSW 11:51:31 42° SSW 17:32:53 10° SSW visible
02 Oct 8.9 15:13:26 10° WSW 15:53:37 17° WSW 17:30:07 10° SW visible
